This demonstration page uses our WeatherBlox Daily Observations layout. Learn more.

Left ArrowRight Arrow

Hourly Observations for April 23, 2021

Temp ( °F °C ) Dew Point ( °F °C ) Humidity (%) Winds ( mph kmh ) Pressure ( in mb ) Visibility ( mi km ) Precip ( " mm )
12:30 am 00:30 Cloudy with Light Snow 30 -1.1 27 -2.8 88 88 N 5 7 30.17 1022 4 6 0.00 0.00
12:53 am 00:53 Cloudy with Light Snow 30 -1.1 27 -2.8 88 88 N 6 9 30.12 1020 3 5 0.00 0.00
1:04 am 01:04 Cloudy with Light Snow 30 -1.1 27 -2.8 88 88 N 3 6 30.17 1022 3 5 0.00 0.00
1:53 am 01:53 Cloudy 30 -1.1 26 -3.3 85 85 NE 3 6 30.12 1020 10 16 0.00 0.00
2:53 am 02:53 Cloudy 29 -1.7 24 -4.4 82 82 Calm 30.13 1020 10 16 0.00 0.00
3:53 am 03:53 Cloudy 28 -2.2 25 -3.9 88 88 S 3 6 30.14 1021 10 16 0.00 0.00
4:53 am 04:53 Cloudy 27 -2.8 24 -4.4 89 89 Calm 30.14 1021 10 16 0.00 0.00
5:53 am 05:53 Cloudy 28 -2.2 25 -3.9 88 88 Calm 30.14 1021 10 16 0.00 0.00
6:53 am 06:53 Cloudy 27 -2.8 25 -3.9 92 92 WSW 3 6 30.15 1021 10 16 0.00 0.00
7:53 am 07:53 Cloudy 29 -1.7 26 -3.3 89 89 Calm 30.16 1021 10 16 0.00 0.00
8:53 am 08:53 Cloudy 31 -0.6 24 -4.4 76 76 SW 5 7 30.17 1022 10 16 0.00 0.00
9:53 am 09:53 Cloudy 32 0 24 -4.4 73 73 SSW 6 9 30.16 1022 10 16 0.00 0.00
10:53 am 10:53 Cloudy 34 1.1 24 -4.4 67 67 VRB 6 9 30.17 1022 10 16 0.00 0.00
11:53 am 11:53 Cloudy 34 1.1 22 -5.6 61 61 VRB 3 6 30.16 1021 9 14 0.00 0.00
12:53 pm 12:53 Cloudy 34 1.1 22 -5.6 61 61 VRB 5 7 30.14 1021 10 16 0.00 0.00
1:53 pm 13:53 Cloudy 37 2.8 23 -5 57 57 undefined N/A 30.12 1020 10 16 0.00 0.00
2:53 pm 14:53 Cloudy 38 3.3 21 -6.1 51 51 WSW 8 13 30.11 1020 10 16 0.00 0.00
3:53 pm 15:53 Cloudy 38 3.3 22 -5.6 52 52 WSW 7 11 30.10 1019 10 16 0.00 0.00
4:53 pm 16:53 Cloudy 38 3.3 21 -6.1 51 51 SSW 8 13 30.08 1019 10 16 0.00 0.00
5:53 pm 17:53 Cloudy 38 3.3 21 -6.1 51 51 SW 5 7 30.07 1018 10 16 0.00 0.00
6:53 pm 18:53 Cloudy 39 3.9 21 -6.1 48 48 SW 3 6 30.06 1018 10 16 0.00 0.00
7:53 pm 19:53 Mostly Cloudy 37 2.8 23 -5 57 57 SSW 3 6 30.06 1018 10 16 0.00 0.00
8:53 pm 20:53 Partly Cloudy 36 2.2 21 -6.1 55 55 Calm 30.06 1018 10 16 0.00 0.00
9:53 pm 21:53 Clear 29 -1.7 23 -5 78 78 SE 6 9 30.08 1019 10 16 0.00 0.00
10:53 pm 22:53 Partly Cloudy 30 -1.1 24 -4.4 79 79 SSE 3 6 30.06 1018 10 16 0.00 0.00
11:53 pm 23:53 Clear 28 -2.2 23 -5 81 81 E 5 7 30.05 1018 10 16 0.00 0.00

Powered by AerisWeather